Powrót do katalogu

STARLINK-2627

AktywnyŁącznośćVLEO
NORAD 48687·PAYLOAD·🇺🇸 United States

Wystrzelony May 26, 2021 z Cape Canaveral Space Force Station

Loading…

Następne Przeloty (najbliższe 24 godziny)

TLE

ŚwieżeSource: CelesTrak SupGP

Epoka: Sep 14, 2026, 13:57 UTC

1 48687C 21044BB  26257.58173611 -.00000090  00000+0 -28905-5 0  2574
2 48687  53.1573 265.9172 0000950  71.6321 290.3747 15.31639845    13

Śledź STARLINK-2627 w czasie rzeczywistym z AllMySat

Download on the App Store